Snowfall_Accumulation
1.9 0.4 0.1 0.7 2.0 1.0 1.5 1.8 3.3 5.6 3.2 1.2 0.3 0.1 0.1 0.1 0.0 0.0 0.0 0.0 0.0 0.0 0.0 0.0 0.0 0.0 0.0 0.0 0.0 0.0 0.0 0.0 0.0 0.0 0.0 0.0 0.0 0.0 0.0 0.0 0.0 0.0 0.0 0.0
9.4 0.7 1.3 3.4 2.8 0.8 1.9 2.2 2.3 1.5 0.9 0.3 0.0 0.0 0.0 0.0 0.0 0.0 0.1 0.0 0.0 0.0 0.0 0.0 0.0 0.0 0.0 0.0 0.0 0.0 0.0 0.0 0.0 0.0 0.0 0.0 0.0 0.0 0.0 0.0 0.0 0.0 0.0 0.0
8.0 1.2 1.1 6.0 6.4 3.3 1.2 0.6 0.1 0.0 0.5 0.1 0.0 0.1 0.1 0.1 0.2 0.2 0.2 0.1 0.1 0.1 0.1 0.0 0.0 0.0 0.0 0.0 0.0 0.0 0.0 0.0 0.0 0.0 0.0 0.0 0.0 0.0 0.0 0.0 0.0 0.0 0.0 0.0
3.7 0.3 3.6 5.7 1.8 1.2 0.6 0.2 0.1 0.1 0.3 0.1 0.4 0.7 0.5 0.7 0.5 0.4 0.4 0.3 0.3 0.3 0.3 0.3 0.0 0.0 0.0 0.0 0.0 0.0 0.0 0.0 0.0 0.0 0.0 0.0 0.0 0.0 0.0 0.0 0.0 0.0 0.0 0.0
2.1 0.7 2.0 1.0 0.1 0.2 0.2 0.8 0.3 0.2 0.3 0.4 0.3 0.1 0.6 0.8 1.2 1.8 2.7 2.9 2.9 1.5 1.7 0.2 0.1 0.1 0.0 0.0 0.0 0.0 0.0 0.0 0.0 0.0 0.0 0.0 0.0 0.0 0.0 0.0 0.0 0.0 0.0 0.0
0.2 0.0 0.8 0.1 0.0 0.0 0.0 2.7 0.4 0.1 0.0 0.1 0.1 1.0 4.9 2.5 2.3 3.1 6.1 4.6 4.8 3.7 1.0 1.4 2.5 1.4 2.4 1.0 0.0 0.0 0.0 0.0 0.0 0.0 0.0 0.0 0.0 0.0 0.0 0.0 0.0 0.0 0.0 0.0
0.0 0.1 0.0 0.0 0.0 0.0 1.9 4.2 2.3 1.0 2.5 3.7 3.8 4.4 5.7 4.8 4.3 4.7 6.8 10.2 7.0 6.6 6.3 6.1 5.7 2.6 3.7 7.8 6.6 4.8 4.6 3.6 1.9 0.0 0.0 0.0 0.0 0.0 1.5 0.0 0.0 0.0 0.0 0.0
0.1 0.7 0.3 0.0 0.0 0.0 2.0 2.5 4.1 5.6 8.4 11.7 11.2 11.0 10.3 8.5 6.7 5.3 5.2 7.4 11.5 9.7 9.7 8.2 8.0 8.0 7.8 9.5 14.1 13.3 10.0 10.1 5.9 6.1 5.8 5.6 4.7 3.1 3.0 1.9 1.1 0.5 0.0 0.0
1.2 1.6 1.5 0.3 0.9 1.4 0.7 2.9 3.9 4.6 5.0 7.6 10.2 10.8 9.1 6.2 4.2 3.8 4.8 4.6 5.4 10.3 11.1 8.4 6.0 7.9 10.0 11.1 10.6 13.5 15.6 15.4 14.8 12.5 10.2 11.4 10.7 7.7 5.5 4.3 3.6 2.7 1.4 0.5
2.5 2.4 1.3 0.8 0.7 1.4 2.3 4.5 4.2 3.7 4.1 4.5 5.8 6.6 6.7 4.9 3.4 2.7 2.5 2.7 2.7 3.4 6.3 8.5 9.0 6.9 6.6 6.3 6.8 8.3 10.2 11.9 13.8 13.7 12.8 11.7 12.1 12.0 11.5 10.8 10.0 9.7 8.2 7.5
3.2 1.9 0.6 1.6 3.1 4.2 4.1 4.0 4.2 4.4 4.0 3.8 3.7 4.0 4.1 4.2 3.8 3.3 3.2 2.5 2.2 2.0 2.1 3.1 3.9 5.4 5.6 4.7 3.8 4.5 5.0 6.3 7.1 7.7 8.6 8.7 7.8 8.5 8.1 8.8 7.6 7.1 7.3 6.4
3.3 2.5 2.3 4.2 4.3 3.4 3.8 4.1 2.8 1.7 1.7 1.7 1.7 1.9 1.3 0.6 0.9 0.7 0.8 0.7 0.6 0.6 0.7 0.8 1.2 1.5 1.2 1.3 0.9 2.4 3.4 3.8 4.3 4.8 4.9 6.4 7.1 7.5 5.6 6.1 4.7 4.0 3.7 3.6
3.0 2.8 3.1 4.0 3.7 2.9 2.7 2.9 1.9 1.1 0.7 0.6 0.2 0.0 0.0 0.0 0.0 0.0 0.0 0.0 0.0 0.0 0.0 0.0 0.0 0.1 0.1 0.0 0.0 0.0 0.0 0.3 0.0 1.0 1.3 2.3 2.6 3.0 5.1 5.4 4.2 4.1 4.6 4.3
2.4 1.6 3.0 3.4 2.9 1.6 1.0 0.8 0.5 0.1 0.0 0.0 0.0 0.0 0.0 0.0 0.0 0.0 0.0 0.1 0.0 0.0 0.0 0.0 0.0 0.3 0.2 0.0 0.0 0.0 0.0 0.0 0.0 0.0 0.0 0.0 0.0 0.1 0.2 0.3 0.8 0.9 0.6 1.2
1.9 0.7 0.5 0.2 0.0 0.0 0.0 0.0 0.0 0.0 0.0 0.0 0.0 0.0 0.0 0.0 0.1 0.2 0.2 0.0 0.0 0.0 0.0 0.0 0.0 0.2 0.1 0.0 0.0 0.0 0.0 0.0 0.0 0.0 0.0 0.1 0.0 0.0 0.0 0.0 0.0 0.0 0.0 0.0
0.0 0.0 0.0 0.0 0.0 0.0 0.0 0.0 0.0 0.0 0.0 0.0 0.0 0.0 0.1 0.0 0.0 0.0 0.0 0.0 0.0 0.1 0.1 0.0 0.0 0.3 0.1 0.0 0.0 0.0 0.0 0.0 0.0 0.1 0.1 0.0 0.0 0.0 0.0 0.0 0.0 0.0 0.0 0.0
0.0 0.0 0.0 0.0 0.0 0.0 0.0 0.0 0.0 0.0 0.0 0.0 0.0 0.0 0.0 0.0 0.0 0.0 0.0 0.0 0.0 0.0 0.0 0.0 0.2 0.0 0.0 0.0 0.0 0.0 0.0 0.0 0.0 0.0 0.0 0.0 0.0 0.0 0.0 0.0 0.0 0.0 0.1 0.0
0.0 0.0 0.0 0.0 0.0 0.0 0.0 0.0 0.0 0.0 0.0 0.0 0.0 0.0 0.0 0.0 0.0 0.0 0.0 0.0 0.0 0.0 0.0 0.0 0.0 0.0 0.0 0.0 0.0 0.0 0.0 0.0 0.0 0.0 0.0 0.0 0.0 0.0 0.0 0.0 0.0 0.0 0.0 0.0
0.0 0.0 0.0 0.0 0.0 0.0 0.0 0.0 0.0 0.0 0.0 0.0 0.0 0.0 0.0 0.0 0.0 0.0 0.0 0.0 0.0 0.0 0.0 0.0 0.0 0.0 0.0 0.0 0.0 0.0 0.0 0.0 0.0 0.0 0.0 0.0 0.0 0.0 0.0 0.0 0.0 0.0 0.0 0.0
0.0 0.0 0.0 0.0 0.0 0.0 0.0 0.0 0.0 0.0 0.0 0.0 0.0 0.0 0.0 0.0 0.0 0.0 0.0 0.0 0.1 0.1 0.0 0.0 0.0 0.0 0.0 0.0 0.0 0.0 0.0 0.0 0.0 0.0 0.0 0.0 0.0 0.2 0.0 0.1 0.0 0.1 0.2 0.0
0.0 0.0 0.0 0.0 0.0 0.0 0.0 0.0 0.0 0.0 0.0 0.0 0.0 0.0 0.0 0.0 0.0 0.0 0.0 0.0 0.0 0.0 0.0 0.0 0.0 0.0 0.0 0.0 0.0 0.0 0.0 0.0 0.0 0.0 0.1 0.2 0.1 0.2 0.0 0.0 0.0 0.0 0.0 0.0
0.0 0.0 0.0 0.0 0.0 0.0 0.0 0.0 0.0 0.0 0.0 0.0 0.0 0.0 0.0 0.0 0.0 0.0 0.0 0.0 0.0 0.0 0.0 0.0 0.0 0.0 0.0 0.0 0.0 0.0 0.0 0.0 0.0 0.0 0.0 0.0 0.0 0.0 0.1 0.0 0.0 0.0 0.1 0.0
0.0 0.0 0.0 0.0 0.0 0.0 0.0 0.0 0.0 0.0 0.0 0.0 0.0 0.0 0.0 0.0 0.0 0.0 0.1 0.0 0.0 0.0 0.0 0.0 0.0 0.0 0.0 0.1 0.1 0.0 0.0 0.0 0.0 0.0 0.1 0.0 0.2 0.0 0.0 0.0 0.0 0.1 0.0 0.0
0.0 0.0 0.0 0.0 0.0 0.0 0.0 0.0 0.0 0.0 0.0 0.0 0.0 0.0 0.0 0.0 0.1 0.0 0.0 0.0 0.0 0.0 0.0 0.0 0.0 0.0 0.0 0.1 0.2 0.0 0.1 0.1 0.2 0.1 0.0 0.0 0.2 0.0 0.1 0.0 0.0 0.0 0.0 0.0
0.0 0.0 0.0 0.0 0.0 0.0 0.0 0.0 0.0 0.0 0.0 0.0 0.0 0.0 0.0 0.0 0.0 0.0 0.0 0.0 0.0 0.0 0.0 0.1 0.0 0.0 0.1 0.3 0.3 0.2 0.2 0.2 0.1 0.0 0.1 0.1 0.2 0.0 0.2 0.2 0.1 0.2 0.1 0.0
0.0 0.0 0.0 0.0 0.0 0.0 0.0 0.0 0.0 0.0 0.0 0.0 0.1 0.3 0.1 0.0 0.0 0.0 0.0 0.0 0.0 0.0 0.0 0.3 0.3 0.2 0.1 0.2 0.3 0.2 0.3 0.3 0.3 0.3 0.1 0.1 0.1 0.1 0.2 0.2 0.0 0.0 0.0 0.2
0.0 0.0 0.0 0.0 0.0 0.0 0.0 0.0 0.0 0.0 0.0 0.1 0.1 0.2 0.0 0.1 0.2 0.0 0.0 0.1 0.1 0.4 0.3 0.3 0.4 0.2 0.3 0.3 0.3 0.3 0.3 0.3 0.1 0.0 0.0 0.2 0.2 0.2 0.2 0.2 0.2 0.1 0.0 0.0